Racine, WI

1:53 PM CDT on July 20, 2017 (GMT -0500)
Batten

Weather History for KRAC - January, 2012

Change the Weather History Date:

Monday, January 9, 2012

  Actual Average Record
Temperature  
Mean Temperature 36 °F -  
Max Temperature 45 °F 25 °F 53 °F (2002)
Min Temperature 27 °F 10 °F -13 °F (1962)
Degree Days  
Heating Degree Days 29    
Moisture  
Dew Point 27 °F    
Average Humidity 73    
Maximum Humidity 92    
Minimum Humidity 49    
Precipitation  
Precipitation 0.00 in - - ()
Sea Level Pressure  
Sea Level Pressure 30.05 in    
Wind  
Wind Speed 10 mph (WSW)    
Max Wind Speed 20 mph    
Max Gust Speed 34 mph    
Visibility 9 miles    
Events      
Averages and records for this station are not official NWS values.
T = Trace of Precipitation, MM = Missing Value Source: NWS Daily Summary

Daily Weather History Graph

Daily Weather History Graph

Search for Another Location

Airport or City:

Trip Planner

Search our weather history database for the weather conditions in past years. The results will help you decide how hot, cold, wet, or windy it might be!

Date:

Astronomy

Jan. 09, 2012 Rise Set
Actual Time 7:21 AM CST 4:35 PM CST
Civil Twilight 6:49 AM CST 5:07 PM CST
Nautical Twilight 6:14 AM CST 5:42 PM CST
Astronomical Twilight 5:40 AM CST 6:16 PM CST
Moon 5:23 PM CST (1/9) 7:20 AM CST (1/9)
Length of Visible Light 10h 17m
Length of Day
9h 14m
Full, 100% of the Moon is Illuminated
Jan 9
Full
Jan 16
Last Quarter
Jan 23
New
Jan 30
First Quarter
Feb 7
Full

Hourly Weather History & Observations

Time (CST) Temp. Windchill Dew Point Humidity Pressure Visibility Wind Dir Wind Speed Gust Speed Precip Events Conditions
12:53 AM 27.0 °F 19.5 °F 25.0 °F 92% 30.25 in 7.0 mi SW 6.9 mph - N/A   Clear
1:53 AM 27.0 °F 19.5 °F 24.1 °F 89% 30.23 in 7.0 mi WSW 6.9 mph - N/A   Clear
2:53 AM 27.0 °F 18.7 °F 24.1 °F 89% 30.21 in 7.0 mi WSW 8.1 mph - N/A   Clear
3:53 AM 27.0 °F 18.0 °F 24.1 °F 89% 30.19 in 7.0 mi WSW 9.2 mph - N/A   Clear
4:53 AM 28.0 °F 20.0 °F 25.0 °F 88% 30.17 in 8.0 mi WSW 8.1 mph - N/A   Clear
5:53 AM 28.9 °F 20.4 °F 26.1 °F 89% 30.17 in 8.0 mi WSW 9.2 mph - N/A   Clear
6:53 AM 30.0 °F 21.1 °F 26.1 °F 85% 30.15 in 8.0 mi WSW 10.4 mph - N/A   Clear
7:53 AM 30.9 °F 22.2 °F 26.1 °F 82% 30.13 in 7.0 mi SW 10.4 mph - N/A   Clear
8:53 AM 32.0 °F 23.0 °F 27.0 °F 82% 30.12 in 8.0 mi SW 11.5 mph - N/A   Clear
10:53 AM 36.0 °F 25.6 °F 27.0 °F 70% 30.05 in 10.0 mi SW 18.4 mph 27.6 mph N/A   Clear
11:53 AM 39.0 °F 31.0 °F 27.0 °F 62% 29.99 in 10.0 mi WSW 13.8 mph 27.6 mph N/A   Clear
12:53 PM 42.1 °F 34.5 °F 27.0 °F 55% 29.94 in 10.0 mi WSW 15.0 mph 26.5 mph N/A   Partly Cloudy
1:53 PM 44.1 °F 35.9 °F 28.0 °F 53% 29.90 in 10.0 mi WSW 19.6 mph 29.9 mph N/A   Clear
2:53 PM 45.0 °F 37.1 °F 27.0 °F 49% 29.89 in 10.0 mi WSW 19.6 mph 34.5 mph N/A   Clear
3:53 PM 44.1 °F 36.2 °F 27.0 °F 51% 29.90 in 10.0 mi West 18.4 mph 28.8 mph N/A   Clear
4:53 PM 42.1 °F 34.9 °F 28.0 °F 58% 29.92 in 10.0 mi West 13.8 mph 20.7 mph N/A   Clear
5:53 PM 39.9 °F 33.4 °F 28.9 °F 65% 29.94 in 10.0 mi WSW 10.4 mph - N/A   Clear
7:53 PM 39.0 °F 32.8 °F 28.9 °F 67% 29.97 in 10.0 mi WSW 9.2 mph - N/A   Clear
8:53 PM 37.9 °F 30.0 °F 28.9 °F 70% 29.97 in 10.0 mi West 12.7 mph - N/A   Clear
9:53 PM 37.9 °F 30.0 °F 28.0 °F 68% 29.98 in 10.0 mi West 12.7 mph 20.7 mph N/A   Clear
10:53 PM 37.0 °F 31.6 °F 28.0 °F 70% 29.99 in 10.0 mi West 6.9 mph - N/A   Clear
11:53 PM 36.0 °F 32.1 °F 28.0 °F 73% 30.00 in 10.0 mi West 4.6 mph - N/A   Clear